Погода в Калькутте

Индия     22°43′55″N   88°28′09″E
темп.,
°C
ветер,
м/с
пор.,
м/с
влажн.,
%
обл.,
%
осадки,
мм/ч
давл.,
гПа
погр.,
м
6 марта, сб
сб623:30+23ю6147273 0.0 1010388
02:30+21ююз5866100 0.0 1009148
05:30+18зюз345279 0.0 101039
08:30+26зюз34260 0.0 1012305
11:30+34зюз331812 0.0 10111181
14:30+37з46120 0.0 10073540
17:30+31зсз23170 0.0 100724
20:30+22ю467018 0.0 101092
7 марта, вс
вс723:30+19сз227818 0.0 101123
02:30+20юз33794 0.0 100926
05:30+19юз23866 0.0 101026
08:30+28ю45580 0.0 1013475
11:30+35ююз22220 0.0 10111986
14:30+37з44120 0.0 10083192
17:30+31зсз34160 0.0 100836
20:30+21ю47900 0.0 1011140
8 марта, пн
пн823:30+21ююз37950 0.0 1011164
02:30+20ссз01960 0.0 101023
05:30+20юв12974 0.0 101123
08:30+28ююз466113 0.0 1014605
11:30+36юз67236 0.0 10121526
14:30+38юз66170 0.0 10093159
17:30+31ююз611360 0.0 1008305
20:30+23ю613850 0.0 1011316
9 марта, вт
вт923:30+21ююз48890 0.0 1011180
02:30+21ююз49830 0.0 1010186
05:30+20ююз35820 0.0 101189
08:30+29юз59420 0.0 1013632
11:30+37юз79190 0.0 10121716
14:30+38ююз88170 0.0 10092627
17:30+31ю712350 0.0 1008411
20:30+22ю49910 0.0 1011227
10 марта, ср
ср1023:30+21ююз35880 0.0 1011103
02:30+21ю510840 0.0 1009178
05:30+21ююз411820 0.0 1010224
08:30+30юз610440 0.0 1012681
11:30+38юз68200 0.0 10111559
14:30+39ююз77180 0.0 10072764
17:30+30ю812460 0.0 1007459
20:30+24ю613850 0.0 1009345